DW3039 Karjalohja FI current weather conditions

sailwx.info

Wind from 213

Air temperature 21.7° C
Dewpoint 16.8° C

Last reported at 2016-Jul-29 16:49 UTC.
Time now 2016-Jul-29 17:49 UTC

Location: N 60°16' E 023°41'.
View on Google Maps.

See reports from other nearby stations

  
Tides and Currents Weather Stations Pressure Air Temp Water Temp Dewpoint Dewpoint Depression Visibility Wind Speed Wind Dir Waves Ship Positions
date/time (UTC)wind fromknots sea level pressurealtimeterstation pressurevisibilityair tempwater tempwave heightnotes
2016-Jul-29 16:49 213 21.7
2016-Jul-29 16:39 214 1 gusting 6 21.7
2016-Jul-29 16:29 236 0 gusting 4 21.7
2016-Jul-29 16:19 236 0 gusting 6 21.7
2016-Jul-29 16:09 233 1 gusting 6 21.7
2016-Jul-29 15:59 211 3 gusting 6 21.7
2016-Jul-29 15:49 181 21.1
2016-Jul-29 15:39 184 21.7
2016-Jul-29 15:29 197 1 gusting 6 21.7
2016-Jul-29 15:19 208 1 gusting 6 21.7
2016-Jul-29 15:09 242 2 gusting 6 21.7
2016-Jul-29 14:59 189 1 gusting 5 21.7
2016-Jul-29 14:49 249 0 gusting 4 21.1
2016-Jul-29 14:39 261 21.7
2016-Jul-29 14:29 234 0 gusting 6 21.7
2016-Jul-29 14:18 246 1 gusting 6 21.7
2016-Jul-29 14:08 136 0 gusting 2 21.1
2016-Jul-29 13:58 228 21.7
2016-Jul-29 13:48 228 21.7
2016-Jul-29 13:38 223 21.7
2016-Jul-29 13:28 222 1 gusting 6 21.7
2016-Jul-29 13:18 212 1 gusting 5 22.2
2016-Jul-29 13:08 220 1 gusting 6 21.7
2016-Jul-29 12:58 235 2 gusting 7 21.7
2016-Jul-29 12:48 201 3 gusting 6 21.7
2016-Jul-29 12:38 211 4 gusting 8 21.7
2016-Jul-29 12:28 212 0 gusting 6 21.1
2016-Jul-29 12:18 277 21.1
2016-Jul-29 12:08 250 0 gusting 6 21.1
2016-Jul-29 11:58 203 0 gusting 3 21.1
2016-Jul-29 11:48 201 0 gusting 2 21.1
2016-Jul-29 11:38 213 0 gusting 6 21.1
2016-Jul-29 11:28 166 21.1
2016-Jul-29 11:18 226 1 gusting 6 21.1
2016-Jul-29 11:08 190 21.1
2016-Jul-29 10:58 216 1 gusting 5 21.1
2016-Jul-29 10:48 197 1 gusting 5 20.6
2016-Jul-29 10:38 013 0 gusting 4 20.6
2016-Jul-29 10:28 049 20.6
2016-Jul-29 10:18 047 1 gusting 4 20.6
2016-Jul-29 10:08 152 20.6
2016-Jul-29 09:58 218 20.6
2016-Jul-29 09:48 290 20.6
2016-Jul-29 09:38 238 0 gusting 6 20.6
2016-Jul-29 09:28 155 20.0
2016-Jul-29 09:18 221 2 gusting 5 20.0
2016-Jul-29 09:08 239 20.0
2016-Jul-29 08:58 317 20.0
2016-Jul-29 08:48 228 0 gusting 6 20.0
2016-Jul-29 08:38 210 1 gusting 6 20.0
2016-Jul-29 08:28 206 0 gusting 5 20.0
2016-Jul-29 08:18 204 0 gusting 4 19.4
2016-Jul-29 08:08 226 0 gusting 6 19.4
2016-Jul-29 07:58 244 1 gusting 5 19.4
2016-Jul-29 07:48 242 3 gusting 6 19.4
2016-Jul-29 07:28 246 0 gusting 5 18.9
2016-Jul-29 07:18 243 1 gusting 5 18.9
2016-Jul-29 07:08 239 2 gusting 5 18.9
2016-Jul-29 06:58 319 0 gusting 6 18.9
2016-Jul-29 06:47 243 0 gusting 5 18.3
2016-Jul-29 06:37 339 2 gusting 4 17.8
2016-Jul-29 06:27 253 1 gusting 5 17.8
2016-Jul-29 06:17 245 2 gusting 6 17.2
2016-Jul-29 06:07 232 2 gusting 4 17.2
2016-Jul-29 05:57 246 0 gusting 3 17.2
2016-Jul-29 05:47 249 0 gusting 4 17.2
2016-Jul-29 05:37 242 2 gusting 4 17.2
2016-Jul-29 05:27 201 17.2
2016-Jul-29 05:17 238 17.2
2016-Jul-29 05:07 238 0 gusting 3 17.2
2016-Jul-29 04:57 255 17.2
2016-Jul-29 04:47 221 17.2
2016-Jul-29 04:37 239 16.7
2016-Jul-29 04:27 239 16.7
2016-Jul-29 04:17 306 16.7
2016-Jul-29 04:07 306 16.1
2016-Jul-29 03:57 300 16.1
2016-Jul-29 03:47 300 15.6
2016-Jul-29 03:37 237 15.6
2016-Jul-29 03:27 234 15.6
2016-Jul-29 03:17 025 15.6
2016-Jul-29 03:07 025 15.6
2016-Jul-29 02:57 025 15.6
2016-Jul-29 02:47 025 15.6
2016-Jul-29 02:37 025 15.6
2016-Jul-29 02:27 025 15.6
2016-Jul-29 02:17 025 15.6
2016-Jul-29 02:07 025 15.6
2016-Jul-29 01:57 025 16.1
2016-Jul-29 01:47 025 16.1
2016-Jul-29 01:37 025 16.1
2016-Jul-29 01:27 025 16.1
2016-Jul-29 01:17 025 16.1
2016-Jul-29 01:07 025 16.1
2016-Jul-29 00:57 025 16.1
2016-Jul-29 00:47 025 16.1
2016-Jul-29 00:37 025 16.1
2016-Jul-29 00:27 025 16.1
2016-Jul-29 00:17 025 16.1
2016-Jul-29 00:07 025 16.1
2016-Jul-28 23:57 025 16.1
2016-Jul-28 23:47 025 16.1
2016-Jul-28 23:37 025 16.1
2016-Jul-28 23:26 025 16.1
2016-Jul-28 23:16 025 16.1
2016-Jul-28 23:06 025 16.1
2016-Jul-28 22:56 025 16.1
2016-Jul-28 22:46 025 16.1
2016-Jul-28 22:36 025 16.1
2016-Jul-28 22:26 025 16.1
2016-Jul-28 22:16 025 16.1
2016-Jul-28 22:06 025 16.1
2016-Jul-28 21:56 025 16.1
2016-Jul-28 21:46 025 16.1
2016-Jul-28 21:36 025 16.1
2016-Jul-28 21:26 025 16.1
2016-Jul-28 21:16 025 16.1
2016-Jul-28 21:06 025 16.1
2016-Jul-28 20:56 025 16.1
2016-Jul-28 20:46 025 16.7
2016-Jul-28 20:36 025 16.7
2016-Jul-28 20:26 025 16.7
2016-Jul-28 20:16 025 16.7
2016-Jul-28 20:06 025 16.7
2016-Jul-28 19:56 025 16.7
2016-Jul-28 19:46 025 16.7
2016-Jul-28 19:36 025 16.7
2016-Jul-28 19:26 025 16.7
2016-Jul-28 19:16 025 16.7
2016-Jul-28 19:06 025 16.7
2016-Jul-28 18:56 025 16.7
2016-Jul-28 18:46 025 16.7
2016-Jul-28 18:36 025 16.7
2016-Jul-28 18:26 025 16.7
2016-Jul-28 18:16 025 16.7
2016-Jul-28 18:06 025 16.7
2016-Jul-28 17:56 025 16.7
2016-Jul-28 17:46 025 16.7
2016-Jul-28 17:36 025 16.7
2016-Jul-28 17:26 025 16.7
2016-Jul-28 17:16 328 0 gusting 3 17.2
2016-Jul-28 17:06 338 17.2
2016-Jul-28 16:56 338 17.2
2016-Jul-28 16:46 338 17.2
2016-Jul-28 16:36 338 17.2
2016-Jul-28 16:25 009 17.2
2016-Jul-28 16:15 252 17.2
2016-Jul-28 16:05 046 17.2
2016-Jul-28 15:55 239 17.8
2016-Jul-28 15:45 239 17.8
2016-Jul-28 15:35 241 0 gusting 4 18.3
2016-Jul-28 15:25 246 2 gusting 6 18.3
2016-Jul-28 15:15 249 2 gusting 6 18.9
2016-Jul-28 15:05 211 0 gusting 3 18.9
2016-Jul-28 14:55 251 19.4
2016-Jul-28 14:45 222 1 gusting 4 19.4
2016-Jul-28 14:35 007 19.4
2016-Jul-28 14:25 007 19.4
2016-Jul-28 14:15 007 20.0
2016-Jul-28 14:05 007 20.0
2016-Jul-28 13:55 007 20.0
2016-Jul-28 13:45 007 20.0
2016-Jul-28 13:35 007 20.0
2016-Jul-28 13:25 007 20.6
2016-Jul-28 13:15 007 20.6
2016-Jul-28 13:05 007 20.6
2016-Jul-28 12:55 007 21.1
2016-Jul-28 12:45 007 21.1
2016-Jul-28 12:35 007 21.1
2016-Jul-28 12:25 007 21.1
2016-Jul-28 12:15 007 21.1
2016-Jul-28 12:05 007 21.1
2016-Jul-28 11:55 007 21.1
2016-Jul-28 11:45 007 21.1
2016-Jul-28 11:35 039 21.1
2016-Jul-28 11:25 046 1 gusting 4 21.1
2016-Jul-28 11:15 066 21.1
2016-Jul-28 11:05 021 21.1
2016-Jul-28 10:55 066 21.1
2016-Jul-28 10:45 140 21.1
2016-Jul-28 10:35 151 21.1
2016-Jul-28 10:25 139 0 gusting 2 20.6
2016-Jul-28 10:15 100 21.1
2016-Jul-28 10:05 100 21.1
2016-Jul-28 09:55 100 21.1
2016-Jul-28 09:45 116 0 gusting 5 21.1
2016-Jul-28 09:35 145 0 gusting 3 21.1
2016-Jul-28 09:25 012 21.1
2016-Jul-28 09:15 060 0 gusting 4 21.1
2016-Jul-28 09:05 025 3 gusting 5 21.1
2016-Jul-28 08:55 125 21.1
2016-Jul-28 08:44 118 21.1
2016-Jul-28 08:34 137 0 gusting 3 21.1
2016-Jul-28 08:24 091 21.7
2016-Jul-28 08:14 155 0 gusting 4 21.1
2016-Jul-28 08:04 057 21.1
2016-Jul-28 07:54 235 21.1
2016-Jul-28 07:44 123 0 gusting 2 21.1
2016-Jul-28 07:34 123 0 gusting 3 21.1
2016-Jul-28 07:24 121 20.6
2016-Jul-28 07:14 042 20.6
2016-Jul-28 07:04 128 0 gusting 2 20.0
2016-Jul-28 06:54 088 19.4
2016-Jul-28 06:44 215 0 gusting 4 18.9
2016-Jul-28 06:34 218 1 gusting 3 18.9
2016-Jul-28 06:24 101 18.3
2016-Jul-28 06:14 216 1 gusting 3 18.3
2016-Jul-28 06:04 194 17.8
2016-Jul-28 05:54 111 17.8
2016-Jul-28 05:44 111 17.8
2016-Jul-28 05:34 111 17.8
2016-Jul-28 05:24 155 17.2
2016-Jul-28 05:14 122 17.2
2016-Jul-28 05:04 141 0 gusting 2 17.2
2016-Jul-28 04:54 200 16.7
2016-Jul-28 04:44 200 16.7
2016-Jul-28 04:34 200 16.1
2016-Jul-28 04:24 200 16.1
2016-Jul-28 04:14 200 15.6
2016-Jul-28 04:04 200 15.0
2016-Jul-28 03:54 200 15.0
2016-Jul-28 03:44 200 14.4
2016-Jul-28 03:34 200 14.4
2016-Jul-28 03:24 200 14.4
2016-Jul-28 03:14 200 14.4
2016-Jul-28 03:04 200 13.9
2016-Jul-28 02:54 200 13.9
2016-Jul-28 02:44 200 13.9
2016-Jul-28 02:34 200 13.9
2016-Jul-28 02:24 200 13.9
2016-Jul-28 02:14 200 13.9
2016-Jul-28 02:04 200 13.9
2016-Jul-28 01:54 200 13.9
2016-Jul-28 01:44 200 13.9
2016-Jul-28 01:34 200 13.9
2016-Jul-28 01:23 200 14.4
2016-Jul-28 01:13 200 14.4
2016-Jul-28 01:03 200 14.4
2016-Jul-28 00:53 200 14.4
2016-Jul-28 00:43 200 14.4
2016-Jul-28 00:33 200 14.4
2016-Jul-28 00:23 200 14.4
2016-Jul-28 00:13 200 14.4
2016-Jul-28 00:03 200 15.0
2016-Jul-27 23:53 200 15.0
2016-Jul-27 23:43 200 15.0
2016-Jul-27 23:33 200 15.0
2016-Jul-27 23:23 200 15.0
2016-Jul-27 23:13 200 15.0
2016-Jul-27 23:03 200 15.0
2016-Jul-27 22:53 200 15.6
2016-Jul-27 22:43 200 15.6
2016-Jul-27 22:33 200 15.6
2016-Jul-27 22:23 200 15.6
2016-Jul-27 22:13 200 16.1
2016-Jul-27 22:03 200 16.1
2016-Jul-27 21:53 200 16.1
2016-Jul-27 21:43 200 16.1
2016-Jul-27 21:33 200 16.1
2016-Jul-27 21:23 200 16.7
2016-Jul-27 21:13 200 16.7
2016-Jul-27 21:03 202 0 gusting 3 16.7
2016-Jul-27 20:53 207 0 gusting 4 16.7
2016-Jul-27 20:43 206 0 gusting 2 16.7
2016-Jul-27 20:33 173 16.7
2016-Jul-27 20:23 173 17.2
2016-Jul-27 20:13 173 17.2
2016-Jul-27 20:03 199 17.2
2016-Jul-27 19:53 207 0 gusting 3 17.8
2016-Jul-27 19:43 165 17.8
2016-Jul-27 19:33 165 18.3
2016-Jul-27 19:23 165 18.3
2016-Jul-27 19:13 166 18.3
2016-Jul-27 19:03 185 0 gusting 4 18.9
2016-Jul-27 18:53 200 0 gusting 3 18.9
2016-Jul-27 18:43 204 18.9
2016-Jul-27 18:33 204 19.4
2016-Jul-27 18:23 210 19.4
2016-Jul-27 18:13 213 20.0
2016-Jul-27 18:03 213 20.0
2016-Jul-27 17:53 175 20.0
2016-Jul-27 17:43 231 0 gusting 2 20.0
2016-Jul-27 17:33 231 20.0
2016-Jul-27 17:22 246 20.6
2016-Jul-27 17:12 213 20.6
2016-Jul-27 17:02 220 20.6